PU3XGS-13 Weather Reports


Display with metric or nautical units.
time (UTC)temp
F
wind
direction
speed
MPH
gust
MPH
rain 1hr
in
rain 24hr
in
rain mn
in
humidity
%
barometer
mb
20260507233633 86 0.0 0.0 0.00 0.00 0.00 41 1000.5
20260507225633 86 0.0 0.0 0.00 0.00 0.00 43 1000.6
20260507221634 86 0.0 0.0 0.00 0.00 0.00 44 1000.8
20260507213633 89 0.0 0.0 0.00 0.00 0.00 39 1000.8
20260507205633 90 0.0 0.0 0.00 0.00 0.00 38 1000.9
20260507201633 91 0.0 0.0 0.00 0.00 0.00 35 1000.8
20260507193633 92 0.0 0.0 0.00 0.00 0.00 34 1001.0
20260507185633 92 0.0 0.0 0.00 0.00 0.00 34 1001.1
20260507181634 93 0.0 0.0 0.00 0.00 0.00 33 1000.7
20260507173633 94 0.0 0.0 0.00 0.00 0.00 32 1000.7
20260507165634 95 0.0 0.0 0.00 0.00 0.00 31 1001.0
20260507161634 98 0.0 0.0 0.00 0.00 0.00 30 1001.9
20260507153636 97 0.0 0.0 0.00 0.00 0.00 32 1002.8
20260507145633 94 0.0 0.0 0.00 0.00 0.00 36 1003.8
20260507141633 92 0.0 0.0 0.00 0.00 0.00 38 1005.1
20260507133633 90 0.0 0.0 0.00 0.00 0.00 42 1006.3
20260507125633 88 0.0 0.0 0.00 0.00 0.00 46 1007.0
20260507121633 83 0.0 0.0 0.00 0.00 0.00 56 1007.2
20260507113634 83 0.0 0.0 0.00 0.00 0.00 55 1007.2
20260507105633 80 0.0 0.0 0.00 0.00 0.00 60 1007.0
20260507101634 79 0.0 0.0 0.00 0.00 0.00 60 1007.1
20260507093633 77 0.0 0.0 0.00 0.00 0.00 62 1007.1
20260507085634 80 0.0 0.0 0.00 0.00 0.00 58 1007.1
20260507081633 79 0.0 0.0 0.00 0.00 0.00 59 1007.3
20260507073633 80 0.0 0.0 0.00 0.00 0.00 59 1007.8
20260507065633 79 0.0 0.0 0.00 0.00 0.00 61 1008.0
20260507061633 80 0.0 0.0 0.00 0.00 0.00 59 1008.6
20260507053633 80 0.0 0.0 0.00 0.00 0.00 60 1009.2
20260507045633 82 0.0 0.0 0.00 0.00 0.00 57 1009.5
20260507041633 81 0.0 0.0 0.00 0.00 0.00 59 1010.1
20260507033633 80 0.0 0.0 0.00 0.00 0.00 60 1010.6
20260507025633 81 0.0 0.0 0.00 0.00 0.00 59 1011.1
20260507021633 83 0.0 0.0 0.00 0.00 0.00 56 1011.3
20260507013633 83 0.0 0.0 0.00 0.00 0.00 57 1011.7
20260507005634 83 0.0 0.0 0.00 0.00 0.00 57 1011.8
20260507001633 83 0.0 0.0 0.00 0.00 0.00 58 1011.9